Presure
134 175 197 208 205 196 160 158 170 163 171 164 170 169 171 200 223 211 201 195 196 181 197 239 206 190 200 221 214 204 202 187 186 169 170 183 201 163 185 149 165 146 163
170 178 183 184 190 171 153 157 162 163 176 150 159 151 156 162 204 224 212 200 200 194 191 184 221 201 183 191 192 207 198 194 183 172 177 176 182 163 154 156 177 163 141
195 185 167 183 182 179 170 162 170 173 169 175 162 152 154 153 174 213 210 205 203 210 221 204 184 201 203 187 188 173 178 180 185 191 174 180 175 180 173 165 155 152 151
205 172 168 177 169 177 175 160 172 166 171 161 173 160 151 181 163 167 176 168 163 173 177 196 209 195 191 186 188 203 203 205 211 197 192 169 170 177 182 179 181 181 178
180 185 191 170 157 181 180 160 175 168 157 182 176 174 182 169 172 149 172 182 170 168 163 159 153 160 164 166 166 175 178 180 179 182 185 192 194 197 201 188 191 228 178
201 159 183 159 173 178 181 176 177 153 168 174 180 178 169 178 172 164 168 189 169 172 172 175 167 171 151 167 164 167 164 170 169 167 166 169 170 173 179 182 184 184 184
194 182 202 162 189 166 162 167 175 172 161 166 161 173 170 169 170 170 161 158 160 171 189 174 175 170 162 165 157 165 167 167 161 165 166 170 166 167 165 165 168 170 177
200 199 174 185 169 167 165 170 175 173 178 180 175 174 173 155 162 160 169 169 157 154 157 161 163 171 163 162 165 157 155 162 160 159 159 154 154 163 165 173 175 173 151
181 182 188 195 186 200 188 174 177 181 169 163 172 180 162 162 168 150 189 174 173 173 187 176 174 166 153 152 160 174 176 174 160 188 157 167 157 162 172 177 173 176 177
172 181 194 178 198 195 156 185 183 175 181 174 159 177 158 179 194 191 169 165 173 173 181 187 186 187 155 175 177 161 163 168 184 196 153 162 164 180 178 169 179 180 163
174 194 186 192 203 215 192 188 188 191 189 188 178 165 169 191 167 178 176 170 176 185 195 184 204 187 195 193 178 176 177 164 173 171 173 174 170 177 181 175 150 165 174
164 196 190 180 184 194 207 202 187 192 184 175 160 194 176 158 171 177 190 182 190 189 200 186 198 200 207 204 207 207 198 210 172 178 174 179 174 175 163 164 181 176 175
198 178 171 181 185 204 213 205 207 209 207 202 198 160 167 181 191 188 185 185 191 189 205 207 202 204 209 189 176 206 210 179 181 192 184 153 172 182 178 171 174 188 202
220 189 189 194 203 192 188 189 200 200 203 184 196 200 151 173 189 185 194 200 192 155 208 209 205 164 153 200 202 175 192 181 169 174 173 162 173 180 175 190 195 206 210
240 193 192 196 185 174 200 214 205 216 210 211 214 209 197 194 154 196 211 145 154 201 209 206 158 180 201 157 197 172 149 152 186 163 176 182 177 176 208 218 220 277 284
245 203 200 191 180 205 189 185 197 205 206 206 205 204 204 207 161 199 153 193 211 210 157 186 152 157 199 153 160 193 173 164 173 184 184 182 209 214 231 278 306 292 290
234 212 192 209 219 192 197 176 180 199 206 218 215 214 215 149 216 213 155 212 192 150 158 162 189 214 209 179 182 185 173 176 183 226 225 220 230 303 305 289 336 328 319
228 204 210 206 214 226 203 200 184 212 203 219 221 223 214 145 200 175 150 150 183 213 154 194 168 190 189 186 177 176 188 217 221 233 276 308 292 313 305 313 300 297 312
208 214 232 202 217 213 204 193 196 206 207 208 201 195 192 196 203 205 174 202 200 199 198 183 189 190 178 179 206 216 260 257 271 304 301 302 300 282 286 281 267 269 263
185 182 192 193 191 191 186 186 187 187 188 190 204 202 199 194 190 189 189 189 191 191 191 208 217 219 220 238 252 270 318 296 289 297 284 287 277 276 272 267 265 252 258
188 194 194 197 200 202 202 201 200 199 195 193 192 194 191 183 181 185 185 187 215 208 205 216 225 258 257 304 300 307 284 291 285 275 269 267 265 258 259 242 242 235 253
194 194 195 196 197 194 191 191 190 186 189 189 179 191 193 187 195 217 216 212 202 211 260 260 279 303 294 284 280 272 275 268 268 265 259 251 248 246 243 243 242 244 242
183 185 189 187 189 189 187 183 185 182 182 183 202 198 188 218 210 208 207 242 255 254 273 290 290 290 281 281 276 269 264 255 249 245 250 253 257 258 259 260 260 258 255
192 190 187 190 192 191 167 172 171 192 217 213 210 203 200 212 246 251 249 250 257 300 293 287 272 268 265 261 257 250 246 271 277 276 267 262 261 257 259 255 252 251 251
224 224 217 217 216 212 208 206 204 205 212 218 249 248 246 242 256 267 268 293 281 276 265 263 261 256 250 254 273 264 264 292 292 295 304 305 301 303 314 310 301 307 307
200 201 206 205 205 208 209 228 248 255 247 236 233 250 267 269 265 298 286 274 269 263 259 257 277 269 262 267 280 276 306 332 315 306 298 313 355 359 351 346 344 353 351
Wind_Speed
10 13 16 15 19 21 26 23 23 30 27 23 18 19 20 24 17 18 19 21 20 23 20 11 16 21 17 4 17 27 31 31 33 36 36 31 33 52 49 52 58 54 61
17 16 19 18 22 30 24 32 31 35 31 31 30 32 26 25 20 16 16 18 17 17 18 18 12 14 17 10 13 22 25 27 31 34 37 38 38 53 54 56 57 66 57
28 25 18 24 25 31 31 33 30 31 35 32 34 34 29 31 23 12 10 11 13 17 20 16 15 12 16 18 21 22 25 29 33 35 40 43 46 48 59 61 61 62 64
30 17 19 27 27 31 33 34 30 34 30 33 29 29 33 20 28 23 21 23 25 19 15 15 13 11 12 12 14 18 22 28 31 33 36 41 43 46 51 56 59 64 68
27 26 28 26 27 33 33 32 31 32 32 28 29 28 21 23 24 32 21 21 23 24 26 27 29 27 24 23 24 20 21 23 25 27 30 34 37 39 42 50 51 48 62
38 25 31 28 37 38 36 36 36 36 36 30 28 25 30 21 24 29 27 26 25 27 29 26 31 27 31 30 31 30 33 31 34 37 38 38 40 40 42 46 49 51 55
45 40 32 37 38 41 33 41 44 41 41 37 33 32 31 30 30 32 33 33 33 31 28 32 34 34 34 35 35 36 38 40 42 43 43 44 45 50 53 55 57 57 58
38 42 40 47 51 50 43 47 50 45 46 40 39 36 35 33 37 37 38 39 39 38 38 39 40 42 40 41 42 43 45 44 45 47 48 48 52 56 56 57 58 62 55
25 30 38 42 46 47 53 53 55 50 47 41 39 41 39 41 45 35 44 47 49 48 48 50 49 47 42 44 49 51 53 54 52 60 51 58 56 61 65 65 65 67 69
34 36 41 48 49 48 34 51 53 51 53 52 38 48 39 51 49 48 48 47 52 53 55 58 59 59 47 54 55 52 54 56 63 67 54 61 65 70 71 69 73 75 72
36 42 45 46 45 44 53 55 54 54 55 56 54 47 49 55 47 50 53 51 56 58 58 58 62 64 68 68 60 60 62 60 66 66 67 68 69 74 75 74 69 77 81
39 48 48 42 45 48 50 53 55 56 56 49 43 57 49 42 55 57 59 61 61 58 63 59 61 63 64 66 68 70 72 76 67 69 70 72 70 71 74 78 82 83 84
57 55 46 47 48 52 49 46 53 55 57 57 60 45 51 59 62 63 64 65 66 63 70 68 65 65 66 66 64 71 73 68 71 74 74 66 75 78 79 81 85 91 96
64 65 57 55 57 50 50 52 54 55 55 54 58 59 48 58 65 66 69 71 70 53 74 71 71 58 57 71 73 68 71 71 72 75 77 79 83 85 85 92 94 99 101
56 68 61 58 50 46 58 61 55 59 60 60 61 64 68 69 52 72 71 55 56 71 76 74 61 70 77 66 76 71 62 69 79 80 85 88 89 89 98 101 103 89 78
46 48 62 56 50 59 55 50 54 60 61 63 66 68 70 72 58 70 57 68 74 75 63 71 61 69 78 72 76 81 78 79 83 88 89 92 99 101 102 90 69 70 67
45 57 54 59 62 60 60 57 58 62 66 71 71 74 76 58 77 76 63 74 70 65 70 72 78 83 83 80 83 86 87 89 91 98 99 100 102 75 68 70 52 50 52
43 51 57 59 62 60 62 62 60 63 63 64 65 66 68 62 69 69 68 68 76 81 73 80 79 85 87 87 87 90 95 100 101 101 94 70 74 54 54 44 47 46 45
47 49 49 54 60 60 61 61 63 65 65 65 66 68 70 71 74 77 73 79 81 82 84 84 88 91 90 92 98 97 100 100 92 70 65 59 54 62 54 51 56 53 52
54 56 56 57 57 59 62 63 64 65 67 69 69 71 73 73 75 77 79 82 84 86 89 94 97 99 102 105 102 96 64 72 69 60 63 58 61 58 56 56 54 57 53
58 60 63 63 63 62 64 66 68 69 69 72 72 73 75 77 80 81 84 87 94 95 97 101 104 101 100 80 76 66 74 64 63 66 66 64 61 63 61 64 62 63 58
65 68 68 66 66 67 69 71 72 73 78 77 77 81 84 82 87 94 95 95 97 100 99 100 91 75 75 76 73 76 72 74 71 71 71 71 72 71 71 71 71 69 69
67 70 69 70 71 72 72 72 75 75 80 83 88 88 76 92 91 93 96 98 99 101 97 84 81 77 79 76 76 76 78 79 80 80 81 82 82 81 80 78 77 76 76
74 73 74 76 77 77 66 73 74 81 87 89 91 90 91 98 95 95 96 97 97 73 74 72 77 79 80 82 83 84 86 85 83 82 81 81 81 81 82 83 83 82 81
84 84 83 83 83 84 84 85 86 88 92 96 90 89 90 93 93 91 90 72 75 75 79 79 80 81 83 83 79 82 83 81 82 83 80 78 80 80 78 78 76 75 76
82 83 85 86 87 88 90 91 86 83 88 90 92 93 87 84 86 67 70 73 74 76 78 80 76 78 80 81 80 82 74 66 68 70 73 72 61 58 57 57 59 59 62
Wind_Direction
327 247 235 242 227 221 239 265 243 246 256 262 282 293 311 300 275 264 262 272 275 292 297 320 266 273 306 321 238 245 248 248 250 249 252 255 254 242 247 256 250 266 252
240 220 231 218 222 224 269 252 256 257 262 279 272 286 284 291 293 277 272 278 282 288 293 294 300 269 276 283 269 254 255 256 238 247 251 249 245 242 248 249 251 248 271
209 196 220 229 232 233 244 249 251 258 263 272 269 282 285 293 318 298 292 302 308 302 295 287 300 301 277 277 263 275 267 264 259 259 254 251 251 247 245 250 256 259 261
223 253 243 223 243 243 241 253 255 262 272 275 285 283 288 302 294 306 310 306 306 306 314 299 278 300 302 293 287 280 275 276 273 264 262 258 258 258 258 255 256 256 256
277 251 224 241 282 251 252 258 261 260 281 289 289 291 296 299 289 294 305 298 296 299 295 294 299 298 292 291 290 286 288 287 285 282 279 275 274 274 273 267 264 270 263
244 285 239 282 254 255 252 257 263 283 271 281 285 288 283 286 287 288 293 292 285 288 291 284 296 287 296 294 293 287 288 278 279 279 278 278 278 280 280 279 277 276 275
263 265 250 274 240 273 274 275 264 264 271 273 282 275 279 283 284 282 286 294 296 291 273 287 283 286 288 289 293 287 287 285 290 288 288 282 285 285 286 285 284 284 281
264 258 263 265 266 267 271 267 263 269 268 266 270 268 272 289 286 286 286 284 288 292 291 288 287 281 287 289 286 291 294 288 287 287 289 292 293 289 287 282 281 280 290
250 254 254 257 254 248 247 261 263 261 267 278 272 266 282 286 285 290 276 281 284 284 279 277 278 283 292 294 287 284 284 284 288 284 290 289 291 292 289 287 287 287 286
242 249 261 252 262 256 280 251 255 263 263 265 283 268 287 277 276 276 285 287 285 284 283 279 278 277 285 284 284 286 287 288 287 284 293 292 291 287 288 291 289 287 290
251 254 254 258 265 260 252 251 255 257 259 263 265 279 279 276 281 276 275 279 277 278 279 281 278 279 277 277 280 282 283 288 287 289 289 288 290 289 288 290 295 290 287
276 256 255 257 263 266 254 252 255 254 260 269 277 268 276 286 276 276 276 274 275 275 281 282 279 277 276 276 276 277 279 279 289 287 289 288 290 289 289 290 287 288 289
253 262 267 258 259 270 263 261 262 265 263 263 265 282 278 272 274 273 273 277 278 278 284 284 282 282 283 278 287 283 284 290 288 287 289 296 291 289 288 289 289 291 292
255 263 263 267 270 262 265 266 273 271 270 267 267 267 284 277 273 276 277 280 280 291 284 285 283 290 294 288 286 288 286 289 291 290 290 292 291 292 292 293 293 293 293
253 258 261 264 263 267 272 274 273 274 275 277 278 275 272 273 288 275 283 292 289 284 282 284 290 292 293 297 288 291 299 300 292 294 292 292 293 295 294 293 293 294 291
259 262 258 264 265 269 268 271 278 280 280 280 278 277 278 280 287 282 286 288 284 285 292 286 300 295 290 299 294 292 290 293 293 292 292 294 293 293 295 295 291 291 288
264 258 264 268 266 268 269 268 272 278 278 279 280 281 282 289 283 283 290 286 281 297 293 290 292 291 293 292 293 293 294 295 294 293 293 294 297 298 295 294 288 285 281
270 264 267 270 271 272 270 271 273 277 277 279 280 281 280 291 282 286 291 293 289 289 292 291 292 292 292 291 293 296 295 294 295 296 297 299 299 295 294 294 293 294 290
272 272 273 270 272 272 270 271 274 276 277 279 280 282 284 286 286 287 291 288 288 288 289 290 290 290 292 294 294 297 297 297 298 299 298 296 294 297 293 290 291 289 289
272 273 272 272 272 274 275 278 279 280 281 281 279 281 283 283 284 285 286 288 290 291 291 294 295 295 296 298 297 298 300 300 298 297 296 294 294 292 291 289 288 290 288
270 270 271 272 274 276 279 280 280 281 284 283 283 285 285 283 284 287 288 289 294 293 294 297 297 296 298 301 301 300 300 298 297 297 297 295 292 292 290 294 292 292 283
273 274 275 277 278 278 278 280 283 284 285 285 284 287 287 285 289 293 293 293 291 295 298 299 300 301 299 299 299 299 298 298 296 296 295 294 294 292 291 289 289 286 285
272 275 276 277 277 277 279 280 282 282 284 285 287 287 293 292 291 291 291 296 298 300 301 301 302 303 302 303 301 300 299 300 300 300 298 296 294 292 290 288 285 283 282
273 274 275 277 278 279 279 279 282 284 286 287 289 289 290 293 296 297 297 298 298 300 300 300 299 299 299 300 300 301 302 295 295 294 291 289 286 284 283 282 282 282 281
277 278 279 281 282 282 283 284 285 288 289 290 292 293 295 295 295 296 296 296 296 297 297 298 299 299 299 300 298 297 297 298 297 296 295 293 292 290 286 282 279 276 274
278 280 280 281 282 284 285 287 289 292 291 291 292 294 296 295 294 296 296 296 296 296 297 297 298 298 298 299 301 301 301 300 298 299 298 297 297 295 291 288 285 283 279